Regional Weather Roundup
Issued by NWS

Home | Current Version | Previous Version | Graphics & Text | Print | Product List | Glossary On
Versions: 1 2 3 4 5 6 7 8 9 10 11 12 13 14 15 16 17 18 19 20 21 22 23 24 25 26 27 28 29 30 31 32 33 34 35 36 37 38 39 40 41 42 43 44 45 46 47 48
000
ASUS43 KDMX 140807
RWRIA

WEATHER ROUNDUP FOR IOWA
NATIONAL WEATHER SERVICE DES MOINES IA
300 AM CDT SUN SEP 14 2014

NOTE: "FAIR" INDICATES FEW OR NO CLOUDS BELOW 12,000 FEET WITH NO
SIGNIFICANT WEATHER AND/OR OBSTRUCTIONS TO VISIBILITY.

* - THESE STATIONS ARE NOT NWS STATIONS...THUS NOT UNDER NWS
QUALITY CONTROL.  THEY ALSO DO NOT REPORT WEATHER SUCH
AS PRECIPITATION OR FOG.

IAZ001>003-012>014-020>022-031>034-043>046-140900-
   NORTHWEST IOWA

CITY           SKY/WX    TMP DP  RH WIND       PRES   REMARKS
CARROLL *      PTCLDY    48  45  87 SW5       30.21S
CHEROKEE *     CLEAR     45  45 100 S5        30.18F
DENISON *      PTCLDY    46  45  93 S3        30.19S
LE MARS *        N/A     45  43  93 CALM      30.18R
ORANGE CITY *  CLEAR     45  41  87 S6        30.16S
SHELDON *      CLEAR     43  43 100 S5        30.15S
SIOUX CITY     CLEAR     46  43  89 SE7       30.19R
SPENCER        CLEAR     44  41  89 S5        30.17S
STORM LAKE *   PTCLDY    45  45 100 S7        30.19S
$$

IAZ055>058-069>071-079>083-090>094-140900-
   SOUTHWEST IOWA

CITY           SKY/WX    TMP DP  RH WIND       PRES   REMARKS
ATLANTIC *     CLOUDY    52  45  76 S6        30.22F
AUDUBON *      PTCLDY    46  45  93 CALM      30.23F
CLARINDA *     CLOUDY    50  48  93 CALM      30.26S
COUNCIL BLFS *   N/A     52  48  87 S5        30.21S
CRESTON *      CLOUDY    48  45  87 S6        30.25S
HARLAN  *      CLOUDY    46  46 100 CALM      30.25S
LAMONI         MOCLDY    47  43  86 S6        30.26F
SHENANDOAH *     N/A     52  46  82 CALM      30.24S
$$

IAZ047>049-059>061-072>074-084-140900-
   CENTRAL IOWA

CITY           SKY/WX    TMP DP  RH WIND       PRES   REMARKS
AMES           CLOUDY    47  46  97 SE3       30.24F
ANKENY *       CLOUDY    48  46  93 S5        30.25F
CHARITON *     MOCLDY    45  41  87 S6        30.27S
DES MOINES     CLOUDY    50  43  77 S8        30.25F
GRINNELL*      MOCLDY    45  41  87 SE5       30.27F
KNOXVILLE *    PTCLDY    45  41  87 S6        30.26S
MARSHALLTOWN   CLOUDY    47  44  90 SE6       30.25F
PELLA *        CLEAR     45  43  93 S5        30.28F
PERRY *        CLOUDY    48  46  93 S5        30.23F
$$

IAZ004>006-015-016-023>025-035-036-140900-
   NORTH CENTRAL IOWA

CITY           SKY/WX    TMP DP  RH WIND       PRES   REMARKS
ALGONA *       MOCLDY    50  45  81 S9        30.19F
CLARION *        N/A     48  45  87 S9        30.21F
ESTHERVILLE    CLEAR     44  42  93 S8        30.17S
FORT DODGE *   CLOUDY    52  43  71 S9        30.21F
MASON CITY     CLOUDY    47  44  90 S8        30.22F
FOREST CITY *  CLOUDY    46  45  93 S6        30.20S
IOWA FALLS *   CLOUDY    46  43  87 S6        30.24F
$$

IAZ007>011-017>019-026>030-037>042-050>054-066-140900-
   NORTHEAST IOWA

CITY           SKY/WX    TMP DP  RH WIND       PRES   REMARKS
CEDAR RAPIDS   PTCLDY    40  39  97 SE5       30.28F
CHARLES CITY * CLOUDY    46  41  81 S8        30.24S
CLINTON *      CLEAR     41  37  87 S3        30.33F
DECORAH *      PTCLDY    43  39  87 S7        30.24F
DUBUQUE        CLEAR     40  37  89 S3        30.30S
MONTICELLO *   CLOUDY    39  39 100 CALM      30.30S
OELWEIN *      CLEAR     39  37  93 SE7       30.27F WCI  34
WATERLOO       CLOUDY    47  41  80 S8        30.25F
$$

IAZ064-065-067-068-078-140900-
   EAST CENTRAL IOWA

CITY           SKY/WX    TMP DP  RH WIND       PRES   REMARKS
DAVENPORT      CLEAR     41  37  86 CALM      30.31F
IOWA CITY      CLEAR     42  40  92 CALM      30.31S
MT. PLEASANT * CLEAR     41  39  93 CALM      30.30F
MUSCATINE *    CLEAR     41  39  93 CALM      30.31F
QUAD CITIES    CLEAR     40  37  89 CALM      30.32S
$$

IAZ062-063-075>077-085>089-095>099-140900-
   SOUTHEAST IOWA

CITY           SKY/WX    TMP DP  RH WIND       PRES   REMARKS
BURLINGTON     CLEAR     41  40  96 CALM      30.31S
FAIRFIELD *    CLEAR     41  37  87 CALM      30.30S
FORT MADISON * CLEAR     43  41  93 CALM      30.31S
KEOKUK *       FOG       43  43 100 CALM      30.30S VSB 1/4
OSKALOOSA *      N/A     41  39  93 S5        30.29S
CENTERVILLE *  CLEAR     41  41 100 SE5       30.30S
OTTUMWA        CLEAR     42  40  92 S6        30.28F
WASHINGTON *   CLEAR     41  41 100 CALM      30.30F
$$

ABBREVIATIONS USED IN REMARKS
   TC - TEMPERATURES IN CELSIUS
  WCI - WIND CHILL INDEX
   HX - HEAT INDEX
  VSB - VISIBILITY
$$




USA.gov is the U.S. government's official web portal to all federal, state and local government web resources and services.